CT7AGI-13 Weather Reports


time (UTC)temp
F
wind
direction
speed
knots
gust
knots
rain 1hr
in
rain 24hr
in
rain mn
in
humidity
%
barometer
mb
20260507071535 59 254 0.0 0.9 0.00 0.00 0.00 80 1011.1
20260507070533 59 0.0 0.0 0.00 0.00 0.00 81 1011.0
20260507065532 57 0.0 0.0 0.00 0.00 0.00 84 1011.0
20260507064550 57 0.0 0.0 0.00 0.00 0.00 85 1010.8
20260507063528 55 0.0 0.0 0.00 0.00 0.00 88 1010.9
20260507062526 55 0.0 0.0 0.00 0.00 0.00 91 1010.8
20260507061524 52 0.0 0.0 0.00 0.00 0.00 94 1010.9
20260507060523 51 0.0 0.0 0.00 0.00 0.00 95 1010.9
20260507055541 51 0.0 0.0 0.00 0.00 0.00 95 1010.7
20260507054519 50 0.0 0.0 0.00 0.00 0.00 95 1010.6
20260507053557 50 0.0 0.0 0.00 0.00 0.00 94 1010.5
20260507052515 50 0.0 0.0 0.00 0.00 0.00 94 1010.5
20260507051534 51 0.0 0.0 0.00 0.00 0.00 94 1010.4
20260507050532 51 0.0 0.0 0.00 0.00 0.00 93 1010.4
20260507045530 51 0.0 0.0 0.00 0.00 0.00 93 1010.5
20260507044528 51 0.0 0.0 0.00 0.00 0.00 94 1010.5
20260507043526 52 0.0 0.0 0.00 0.00 0.00 93 1010.5
20260507042524 52 0.0 0.0 0.00 0.00 0.00 93 1010.6
20260507041602 52 239 0.0 0.9 0.00 0.00 0.00 93 1010.7
20260507040521 52 0.0 0.0 0.00 0.00 0.00 92 1010.7
20260507035519 52 0.0 0.0 0.00 0.00 0.00 92 1010.9
20260507034517 52 0.0 0.0 0.00 0.00 0.00 91 1011.1
20260507033515 53 243 0.0 0.9 0.00 0.00 0.00 91 1011.1
20260507032534 54 0.0 0.0 0.00 0.00 0.00 91 1011.2
20260507031532 54 256 0.0 0.9 0.00 0.00 0.00 91 1011.1
20260507030530 54 268 0.0 0.9 0.00 0.00 0.00 90 1011.3
20260507025528 54 256 0.0 0.9 0.00 0.00 0.00 90 1011.2
20260507024526 54 259 0.0 0.9 0.00 0.00 0.00 90 1011.3
20260507023524 54 285 0.0 0.9 0.00 0.00 0.00 90 1011.3
20260507022542 54 304 0.0 0.9 0.00 0.00 0.00 90 1011.3
20260507021520 54 311 0.0 0.9 0.00 0.00 0.00 89 1011.3
20260507020539 54 255 0.0 0.9 0.00 0.00 0.00 89 1011.4
20260507015518 55 313 0.0 1.7 0.00 0.00 0.00 89 1011.5
20260507014535 55 308 0.0 0.9 0.00 0.00 0.00 89 1011.5
20260507013533 55 295 0.0 1.7 0.00 0.00 0.00 89 1011.6
20260507012531 55 323 0.0 0.9 0.00 0.00 0.00 88 1011.6
20260507011530 55 307 0.0 0.9 0.00 0.00 0.00 88 1011.7
20260507010528 55 259 0.9 1.7 0.00 0.00 0.00 87 1011.6
20260507005526 56 259 0.0 1.7 0.00 0.00 0.00 87 1011.8
20260507004524 56 328 0.9 1.7 0.00 0.00 0.00 87 1011.7
20260507003522 56 340 0.0 0.9 0.00 0.00 0.00 87 1011.8
20260507002541 56 255 0.0 0.9 0.00 0.00 0.00 86 1011.9
20260507001519 56 242 0.0 0.9 0.00 0.00 0.00 86 1011.9
20260507000517 56 263 0.0 0.9 0.00 0.00 0.00 86 1012.0
20260506235515 56 229 0.0 1.7 0.00 0.00 0.00 86 1012.1
20260506234533 56 240 0.0 0.9 0.00 0.00 0.00 85 1012.2
20260506233532 56 321 0.0 1.7 0.00 0.00 0.00 85 1012.2
20260506232530 56 244 0.9 1.7 0.00 0.00 0.00 85 1012.1
20260506231528 56 243 0.0 1.7 0.00 0.00 0.00 85 1012.2
20260506230546 57 276 0.0 0.9 0.00 0.00 0.00 84 1012.1
20260506225524 57 265 0.0 0.9 0.00 0.00 0.00 84 1012.1
20260506224522 57 263 0.0 0.9 0.00 0.00 0.00 84 1012.1
20260506223521 57 265 0.9 1.7 0.00 0.00 0.00 84 1012.2
20260506222519 57 249 0.0 1.7 0.00 0.00 0.00 84 1012.3
20260506221517 58 274 0.0 0.9 0.00 0.00 0.00 84 1012.4
20260506220535 58 246 0.0 0.9 0.00 0.00 0.00 83 1012.5
20260506215534 58 248 0.9 1.7 0.00 0.00 0.00 83 1012.5
20260506214531 58 310 0.0 0.9 0.00 0.00 0.00 83 1012.6
20260506213530 58 282 0.9 3.5 0.00 0.00 0.00 83 1012.6
20260506212528 58 267 0.9 1.7 0.00 0.00 0.00 83 1012.6
20260506211526 58 236 0.9 1.7 0.00 0.00 0.00 82 1012.6
20260506210545 58 254 0.0 0.9 0.00 0.00 0.00 82 1012.6
20260506205528 59 239 0.9 1.7 0.00 0.00 0.00 81 1012.5
20260506204546 59 261 0.0 1.7 0.00 0.00 0.00 81 1012.4
20260506203524 59 250 0.9 1.7 0.00 0.00 0.00 81 1012.4
20260506202523 59 254 0.9 2.6 0.00 0.00 0.00 80 1012.3
20260506201520 59 208 0.9 2.6 0.00 0.00 0.00 80 1012.2
20260506200538 60 253 0.9 2.6 0.00 0.00 0.00 80 1012.2
20260506195517 60 254 0.9 1.7 0.00 0.00 0.00 79 1012.2
20260506194535 60 255 0.9 2.6 0.00 0.00 0.00 78 1012.1
20260506193533 60 237 0.9 3.5 0.00 0.00 0.00 77 1012.0
20260506192531 61 213 0.9 2.6 0.00 0.00 0.00 76 1012.0
20260506191529 61 244 1.7 3.5 0.00 0.00 0.00 75 1011.9
20260506190528 62 228 1.7 5.2 0.00 0.00 0.00 74 1011.9
20260506185546 63 231 0.9 2.6 0.00 0.00 0.00 73 1011.9
20260506184524 63 223 0.9 5.2 0.00 0.00 0.00 71 1011.9
20260506183602 64 231 1.7 3.5 0.00 0.00 0.00 69 1011.9
20260506182520 64 261 1.7 5.2 0.00 0.00 0.00 69 1011.8
20260506181519 64 270 1.7 3.5 0.00 0.00 0.00 69 1011.7
20260506180517 65 301 1.7 7.0 0.00 0.00 0.00 66 1011.7
20260506175555 65 241 1.7 5.2 0.00 0.00 0.00 66 1011.9
20260506174533 65 276 1.7 3.5 0.00 0.00 0.00 64 1012.0
20260506173612 66 334 1.7 5.2 0.00 0.00 0.00 63 1011.9
20260506172530 67 260 1.7 3.5 0.00 0.00 0.00 63 1012.1
20260506171528 68 196 1.7 7.8 0.00 0.00 0.00 61 1012.0
20260506170526 68 269 1.7 5.2 0.00 0.00 0.00 61 1012.1
20260506165524 68 222 1.7 7.0 0.00 0.00 0.00 61 1012.2
20260506164522 69 245 1.7 5.2 0.00 0.00 0.00 61 1012.2
20260506163520 69 288 1.7 7.0 0.00 0.00 0.00 61 1012.2
20260506162519 69 269 2.6 11.3 0.00 0.00 0.00 62 1012.2
20260506161537 67 317 3.5 12.2 0.00 0.00 0.00 64 1012.2
20260506160555 68 302 3.5 11.3 0.00 0.00 0.00 63 1012.3
20260506155553 69 307 4.3 13.0 0.00 0.00 0.00 62 1012.2
20260506154532 69 313 2.6 7.0 0.00 0.00 0.00 62 1012.2
20260506153530 68 300 3.5 12.2 0.00 0.00 0.00 63 1012.4
20260506152528 68 274 2.6 9.6 0.00 0.00 0.00 64 1012.5
20260506151526 68 208 1.7 5.2 0.00 0.00 0.00 64 1012.6
20260506150604 68 318 4.3 13.0 0.00 0.00 0.00 64 1012.5
20260506145542 68 312 4.3 11.3 0.00 0.00 0.00 65 1012.8
20260506144521 69 315 3.5 12.2 0.00 0.00 0.00 65 1012.9
20260506143538 69 233 1.7 5.2 0.00 0.00 0.00 64 1013.1
20260506142517 67 296 5.2 11.3 0.00 0.00 0.00 67 1013.1
20260506141535 67 330 4.3 13.0 0.00 0.00 0.00 67 1013.0
20260506140533 67 306 3.5 9.6 0.00 0.00 0.00 67 1013.2
20260506135531 69 329 2.6 7.8 0.00 0.00 0.00 65 1013.3
20260506134529 68 315 2.6 9.6 0.00 0.00 0.00 65 1013.4
20260506133548 68 166 2.6 7.0 0.00 0.00 0.00 66 1013.4
20260506132526 67 299 3.5 9.6 0.00 0.00 0.00 68 1013.7
20260506131544 67 244 2.6 7.0 0.00 0.00 0.00 70 1013.7
20260506130522 68 279 2.6 7.8 0.00 0.00 0.00 70 1013.7
20260506125520 66 322 3.5 13.0 0.00 0.00 0.00 72 1013.9
20260506124519 65 306 3.5 11.3 0.00 0.00 0.00 73 1013.9
20260506123517 67 192 1.7 5.2 0.00 0.00 0.00 69 1014.1
20260506122535 65 292 3.5 12.2 0.00 0.00 0.00 73 1014.1
20260506121533 64 277 2.6 11.3 0.00 0.00 0.00 72 1014.3
20260506120532 65 254 2.6 9.6 0.00 0.00 0.00 72 1014.3
20260506115550 65 264 3.5 9.6 0.00 0.00 0.00 69 1014.4
20260506114528 66 331 4.3 13.0 0.00 0.00 0.00 70 1014.4
20260506113526 66 330 2.6 9.6 0.00 0.00 0.00 69 1014.6
20260506112524 64 308 1.7 9.6 0.00 0.00 0.00 71 1014.6
20260506111522 64 301 2.6 7.8 0.00 0.00 0.00 73 1014.6
20260506110521 63 316 1.7 9.6 0.00 0.00 0.00 77 1014.7
20260506105519 62 313 4.3 9.6 0.00 0.00 0.00 79 1014.8
20260506104517 61 304 2.6 9.6 0.00 0.00 0.00 83 1014.8
20260506103515 61 304 2.6 7.0 0.00 0.00 0.00 84 1015.0
20260506102534 61 314 1.7 5.2 0.00 0.00 0.00 83 1015.1
20260506101552 61 267 2.6 7.8 0.00 0.00 0.00 83 1015.1
20260506100530 61 267 1.7 5.2 0.00 0.00 0.00 83 1015.0
20260506095528 60 319 4.3 11.3 0.00 0.00 0.00 85 1014.9
20260506094526 61 302 2.6 7.8 0.00 0.00 0.00 84 1014.9
20260506093525 60 330 4.3 12.2 0.00 0.00 0.00 87 1015.0
20260506092523 62 309 5.2 9.6 0.00 0.00 0.00 82 1014.8
20260506091541 63 254 0.9 3.5 0.00 0.00 0.00 73 1014.7
20260506090539 62 247 1.7 5.2 0.00 0.00 0.00 73 1014.8
20260506085517 63 234 0.9 3.5 0.00 0.00 0.00 76 1014.8
20260506084516 63 273 0.9 1.7 0.00 0.00 0.00 77 1014.8
20260506083534 64 215 0.9 1.7 0.00 0.00 0.00 76 1014.8
20260506082532 63 248 0.9 1.7 0.00 0.00 0.00 76 1015.0
20260506081530 62 247 0.9 2.6 0.00 0.00 0.00 79 1015.0
20260506080528 61 324 0.9 1.7 0.00 0.00 0.00 81 1014.9
20260506073523 60 269 0.0 0.9 0.00 0.00 0.00 83 1014.9
20260506072521 58 180 0.0 0.9 0.00 0.00 0.00 86 1015.0